GEFSGL_prec_meanprecacc_318.txt.gz
Total_Precipitation_Accumulation
2.03 2.23 2.23 2.26 2.35 2.41 2.26 2.00 1.92 1.94 2.02 2.09 2.27 2.33 2.28 2.31 2.42 2.49 2.44 2.76 2.90 2.92 2.91 2.89 2.86 3.00 2.99 2.88 2.98 3.17 3.45 3.53 3.17 2.61 2.48 2.42 2.42 2.32 2.34 2.20 2.07 2.03 1.83
1.92 2.12 2.21 2.21 2.26 2.29 2.16 1.98 1.95 2.00 2.06 2.06 2.18 2.22 2.12 2.14 2.34 2.37 2.41 2.69 2.85 2.73 2.73 2.74 2.53 2.60 2.67 2.55 2.68 2.76 2.90 3.17 3.12 2.78 2.69 2.65 2.60 2.47 2.48 2.44 2.22 2.00 1.73
1.87 2.16 2.34 2.38 2.35 2.26 2.08 1.86 1.80 1.80 1.90 1.94 1.97 2.01 2.06 2.20 2.30 2.29 2.30 2.31 2.34 2.41 2.63 2.75 2.54 2.52 2.43 2.43 2.45 2.43 2.51 2.64 2.89 2.81 2.67 2.71 2.64 2.63 2.55 2.34 2.18 2.08 1.73
1.78 1.99 2.10 1.99 1.92 1.92 1.84 1.71 1.66 1.68 1.73 1.80 1.89 1.98 2.05 2.12 2.17 2.24 2.29 2.22 2.20 2.26 2.40 2.47 2.44 2.41 2.34 2.43 2.34 2.32 2.41 2.58 2.71 2.75 2.66 2.75 2.74 2.70 2.71 2.48 2.47 2.34 2.12
1.45 1.56 1.68 1.67 1.64 1.62 1.68 1.73 1.75 1.83 1.80 1.87 1.95 1.96 1.95 1.94 1.87 1.91 1.99 2.01 2.14 2.10 2.02 2.04 2.06 2.10 2.08 2.12 1.97 2.14 2.39 2.53 2.58 2.59 2.59 2.76 2.90 2.92 2.73 2.66 2.73 2.69 2.47
1.25 1.36 1.58 1.70 1.71 1.70 1.76 1.88 1.93 1.89 1.89 1.92 1.87 1.93 1.92 1.66 1.83 1.85 1.85 1.96 2.04 2.05 1.97 1.87 1.77 1.77 1.69 1.69 1.65 1.74 2.03 2.26 2.39 2.51 2.49 2.61 2.84 3.04 3.16 3.12 2.98 2.86 2.77
1.36 1.50 1.68 1.79 1.86 1.88 1.84 1.97 1.93 1.93 2.01 1.96 1.89 1.90 1.93 1.97 2.01 1.83 1.70 1.67 1.77 1.84 1.83 1.81 1.59 1.50 1.67 1.64 1.67 1.65 1.67 1.83 1.99 2.21 2.30 2.27 2.46 2.77 3.04 2.98 3.12 3.15 3.05
1.64 1.83 1.93 2.03 1.97 1.95 1.95 1.98 2.07 2.16 2.19 2.16 2.10 2.02 2.01 1.97 1.96 1.75 1.75 1.67 1.70 1.71 1.74 1.78 1.77 1.69 1.74 1.86 1.83 1.74 1.62 1.58 1.68 1.77 1.88 2.01 2.25 2.58 2.85 2.83 2.91 3.01 3.04
1.80 1.89 2.04 2.13 2.17 2.18 2.18 2.15 2.24 2.36 2.31 2.23 2.18 2.18 2.11 2.12 2.20 2.01 2.04 1.89 1.88 1.89 1.91 1.91 1.89 1.79 1.93 1.88 1.78 1.76 1.70 1.68 1.75 1.84 1.80 1.91 2.16 2.31 2.50 2.60 2.57 2.64 2.58
1.77 1.89 2.06 2.28 2.33 2.35 2.49 2.58 2.53 2.48 2.33 2.34 2.33 2.30 2.30 2.33 2.57 2.39 2.23 2.07 2.08 2.07 2.16 2.13 2.17 2.00 1.99 1.92 1.77 1.79 1.80 1.82 1.92 1.88 1.84 1.80 1.83 2.05 2.31 2.34 2.51 2.69 2.56
1.80 1.94 2.13 2.30 2.38 2.46 2.63 2.71 2.67 2.61 2.57 2.52 2.45 2.49 2.48 2.47 2.64 2.41 2.23 2.09 2.15 2.29 2.27 2.18 2.22 2.25 2.04 2.05 1.99 1.89 1.88 1.89 1.89 1.91 1.91 1.88 1.89 1.99 2.10 2.22 2.47 2.65 2.63
1.73 1.87 2.01 2.16 2.18 2.27 2.54 2.64 2.71 2.72 2.66 2.57 2.52 2.39 2.42 2.40 2.34 2.22 2.13 2.10 2.19 2.30 2.34 2.26 2.22 2.23 2.01 1.94 1.80 1.77 1.82 1.71 1.63 1.75 1.76 1.79 1.80 1.80 1.89 2.10 2.31 2.37 2.41
1.80 1.93 2.09 2.17 2.22 2.33 2.44 2.48 2.57 2.63 2.56 2.45 2.46 2.40 2.35 2.36 2.36 2.13 1.92 1.89 1.94 1.96 2.09 2.23 2.16 2.05 1.85 1.65 1.61 1.59 1.50 1.38 1.38 1.44 1.43 1.42 1.47 1.56 1.69 1.85 2.07 2.18 2.18
1.88 1.95 2.05 2.17 2.18 2.25 2.37 2.48 2.59 2.68 2.74 2.62 2.49 2.39 2.37 2.33 2.21 2.03 1.84 1.76 1.87 1.98 2.06 2.12 2.00 1.89 1.69 1.53 1.44 1.34 1.29 1.35 1.38 1.36 1.39 1.46 1.52 1.58 1.61 1.67 1.82 1.96 2.00
1.83 1.90 1.95 1.99 2.10 2.21 2.27 2.37 2.36 2.43 2.45 2.43 2.36 2.33 2.32 2.25 2.09 2.01 1.83 1.72 1.83 2.01 2.07 2.07 1.93 1.86 1.76 1.65 1.56 1.50 1.47 1.48 1.44 1.43 1.47 1.46 1.47 1.53 1.52 1.53 1.65 1.68 1.64
1.89 1.92 1.87 1.83 1.92 1.99 2.08 2.08 2.09 2.01 2.00 1.94 1.95 1.94 1.86 1.78 1.67 1.56 1.54 1.56 1.65 1.83 1.83 1.89 1.97 1.93 1.86 1.77 1.67 1.58 1.53 1.49 1.45 1.47 1.52 1.50 1.46 1.46 1.52 1.49 1.53 1.57 1.49
1.81 1.86 1.86 1.85 1.88 1.91 1.99 1.95 1.97 1.90 1.80 1.71 1.66 1.67 1.70 1.66 1.60 1.59 1.62 1.67 1.64 1.70 1.63 1.73 1.84 1.81 1.79 1.74 1.62 1.50 1.46 1.48 1.56 1.55 1.55 1.54 1.57 1.58 1.61 1.57 1.53 1.58 1.54
1.57 1.67 1.80 1.89 1.93 1.94 2.00 2.06 2.12 2.14 2.03 1.81 1.67 1.60 1.54 1.52 1.47 1.51 1.60 1.57 1.48 1.49 1.52 1.65 1.71 1.68 1.64 1.60 1.56 1.50 1.49 1.54 1.63 1.59 1.57 1.58 1.60 1.60 1.62 1.61 1.56 1.54 1.55
1.48 1.51 1.53 1.62 1.74 1.82 1.82 1.86 1.94 2.02 2.03 1.92 1.77 1.67 1.60 1.52 1.43 1.40 1.38 1.25 1.27 1.40 1.55 1.59 1.64 1.63 1.53 1.46 1.43 1.39 1.39 1.44 1.54 1.61 1.59 1.64 1.67 1.70 1.69 1.65 1.68 1.70 1.61
1.50 1.53 1.50 1.47 1.47 1.53 1.60 1.67 1.74 1.85 1.92 1.89 1.82 1.71 1.60 1.50 1.28 1.20 1.13 1.10 1.18 1.26 1.34 1.37 1.41 1.40 1.31 1.32 1.37 1.34 1.31 1.39 1.50 1.56 1.54 1.61 1.69 1.70 1.62 1.60 1.60 1.62 1.54
1.48 1.48 1.49 1.48 1.48 1.52 1.58 1.65 1.68 1.73 1.78 1.70 1.59 1.50 1.43 1.25 1.12 1.04 1.03 1.08 1.15 1.22 1.28 1.34 1.34 1.28 1.28 1.33 1.40 1.42 1.38 1.44 1.52 1.55 1.57 1.61 1.69 1.71 1.63 1.59 1.57 1.60 1.61
1.50 1.43 1.38 1.39 1.46 1.52 1.59 1.67 1.70 1.70 1.64 1.56 1.48 1.36 1.32 1.15 1.06 1.04 1.06 1.11 1.16 1.25 1.29 1.31 1.34 1.33 1.29 1.31 1.39 1.46 1.50 1.51 1.56 1.58 1.55 1.58 1.67 1.70 1.73 1.70 1.71 1.73 1.75
1.61 1.50 1.43 1.42 1.44 1.47 1.50 1.56 1.60 1.57 1.52 1.42 1.31 1.24 1.17 1.12 1.05 1.07 1.13 1.21 1.28 1.28 1.25 1.23 1.26 1.27 1.26 1.29 1.30 1.38 1.45 1.50 1.53 1.53 1.60 1.64 1.64 1.63 1.65 1.62 1.63 1.66 1.68
1.65 1.55 1.44 1.36 1.38 1.42 1.46 1.53 1.52 1.46 1.37 1.32 1.28 1.25 1.20 1.21 1.17 1.15 1.21 1.27 1.22 1.14 1.12 1.13 1.15 1.14 1.17 1.24 1.24 1.25 1.30 1.39 1.40 1.39 1.42 1.48 1.50 1.52 1.59 1.58 1.59 1.61 1.67
1.63 1.56 1.45 1.36 1.35 1.37 1.39 1.46 1.49 1.46 1.38 1.28 1.25 1.27 1.33 1.38 1.32 1.26 1.23 1.21 1.13 1.05 1.00 1.08 1.12 1.11 1.13 1.15 1.19 1.21 1.28 1.28 1.26 1.28 1.30 1.36 1.42 1.51 1.58 1.59 1.60 1.60 1.65
1.44 1.36 1.28 1.22 1.20 1.25 1.31 1.39 1.43 1.45 1.45 1.40 1.38 1.38 1.34 1.33 1.29 1.22 1.17 1.15 1.11 1.07 1.03 1.06 1.11 1.11 1.16 1.15 1.09 1.10 1.10 1.03 1.05 1.14 1.12 1.17 1.31 1.44 1.53 1.62 1.63 1.67 1.66

GEFSGL_prec_meanprecacc_324.txt.gz
Total_Precipitation_Accumulation
2.10 2.31 2.32 2.32 2.39 2.46 2.30 2.04 1.95 1.96 2.03 2.10 2.29 2.35 2.30 2.33 2.44 2.51 2.46 2.77 2.91 2.94 2.92 2.91 2.88 3.01 3.00 2.90 3.00 3.18 3.46 3.55 3.18 2.61 2.48 2.43 2.43 2.32 2.34 2.21 2.08 2.04 1.86
2.03 2.22 2.28 2.26 2.30 2.33 2.19 2.01 1.98 2.02 2.08 2.08 2.19 2.23 2.13 2.15 2.35 2.38 2.42 2.70 2.86 2.75 2.74 2.75 2.54 2.60 2.68 2.56 2.70 2.78 2.92 3.19 3.12 2.78 2.70 2.65 2.60 2.48 2.48 2.45 2.23 2.01 1.74
1.94 2.22 2.39 2.43 2.39 2.31 2.11 1.89 1.82 1.82 1.91 1.95 1.98 2.02 2.07 2.21 2.30 2.29 2.31 2.32 2.35 2.42 2.64 2.75 2.54 2.53 2.43 2.43 2.46 2.44 2.53 2.65 2.90 2.82 2.67 2.71 2.64 2.63 2.55 2.34 2.18 2.09 1.73
1.84 2.05 2.19 2.08 2.03 2.01 1.90 1.75 1.69 1.70 1.75 1.81 1.89 1.99 2.06 2.14 2.18 2.25 2.31 2.23 2.21 2.26 2.40 2.47 2.45 2.41 2.34 2.44 2.34 2.33 2.42 2.59 2.72 2.76 2.66 2.76 2.75 2.70 2.72 2.48 2.47 2.34 2.12
1.49 1.60 1.74 1.73 1.72 1.71 1.78 1.81 1.81 1.86 1.81 1.89 1.96 1.97 1.96 1.95 1.88 1.94 2.02 2.03 2.16 2.11 2.02 2.04 2.06 2.11 2.09 2.12 1.98 2.15 2.40 2.54 2.59 2.60 2.60 2.78 2.92 2.93 2.75 2.67 2.73 2.70 2.47
1.27 1.37 1.60 1.73 1.75 1.74 1.81 1.94 1.96 1.91 1.91 1.94 1.89 1.94 1.94 1.67 1.85 1.89 1.89 1.99 2.07 2.07 1.99 1.88 1.79 1.78 1.70 1.70 1.65 1.75 2.04 2.27 2.40 2.54 2.52 2.62 2.85 3.05 3.17 3.13 2.99 2.86 2.78
1.37 1.51 1.70 1.81 1.89 1.90 1.87 2.00 1.96 1.96 2.03 1.99 1.91 1.92 1.94 1.99 2.05 1.88 1.75 1.72 1.83 1.88 1.85 1.82 1.60 1.51 1.68 1.65 1.68 1.66 1.69 1.85 2.01 2.22 2.32 2.27 2.47 2.79 3.06 2.99 3.13 3.17 3.07
1.65 1.83 1.93 2.05 2.00 1.97 1.97 2.00 2.09 2.18 2.23 2.20 2.13 2.05 2.03 2.00 2.01 1.82 1.83 1.74 1.75 1.75 1.76 1.80 1.79 1.70 1.76 1.88 1.84 1.76 1.64 1.59 1.69 1.77 1.89 2.02 2.26 2.59 2.87 2.85 2.92 3.03 3.05
1.80 1.90 2.05 2.14 2.19 2.19 2.19 2.17 2.26 2.38 2.34 2.26 2.21 2.22 2.16 2.18 2.26 2.07 2.10 1.93 1.91 1.91 1.95 1.95 1.92 1.82 1.96 1.93 1.81 1.78 1.72 1.70 1.77 1.86 1.81 1.92 2.17 2.32 2.51 2.62 2.59 2.66 2.59
1.78 1.89 2.07 2.29 2.35 2.36 2.50 2.60 2.55 2.50 2.36 2.37 2.36 2.34 2.34 2.39 2.64 2.45 2.28 2.10 2.09 2.09 2.18 2.16 2.20 2.05 2.05 1.98 1.81 1.81 1.82 1.84 1.95 1.90 1.86 1.81 1.85 2.07 2.33 2.36 2.54 2.72 2.59
1.81 1.96 2.14 2.31 2.40 2.48 2.65 2.73 2.69 2.63 2.60 2.57 2.50 2.55 2.54 2.53 2.70 2.47 2.27 2.12 2.17 2.31 2.30 2.21 2.26 2.30 2.09 2.10 2.04 1.93 1.91 1.92 1.92 1.94 1.93 1.90 1.91 2.01 2.12 2.24 2.49 2.68 2.66
1.76 1.90 2.03 2.18 2.20 2.30 2.57 2.66 2.75 2.76 2.72 2.63 2.58 2.45 2.48 2.46 2.39 2.26 2.17 2.14 2.22 2.32 2.38 2.31 2.28 2.29 2.07 2.00 1.86 1.82 1.86 1.76 1.67 1.77 1.79 1.81 1.83 1.84 1.93 2.14 2.35 2.41 2.43
1.84 1.97 2.11 2.19 2.25 2.35 2.47 2.52 2.61 2.67 2.62 2.50 2.52 2.47 2.42 2.41 2.38 2.16 1.95 1.93 1.98 2.00 2.13 2.28 2.22 2.12 1.92 1.72 1.67 1.64 1.55 1.43 1.43 1.48 1.46 1.47 1.55 1.64 1.75 1.90 2.12 2.23 2.21
1.94 2.00 2.09 2.20 2.20 2.28 2.40 2.52 2.63 2.73 2.80 2.67 2.54 2.43 2.41 2.37 2.24 2.06 1.88 1.80 1.91 2.03 2.12 2.18 2.07 1.96 1.77 1.61 1.51 1.41 1.35 1.42 1.45 1.43 1.44 1.51 1.58 1.63 1.64 1.70 1.84 1.98 2.01
1.88 1.95 1.98 2.02 2.12 2.24 2.30 2.41 2.39 2.45 2.48 2.46 2.39 2.36 2.35 2.27 2.12 2.04 1.85 1.74 1.86 2.04 2.11 2.11 1.97 1.91 1.80 1.70 1.62 1.56 1.54 1.55 1.51 1.49 1.54 1.53 1.53 1.58 1.56 1.56 1.67 1.69 1.65
1.93 1.96 1.90 1.86 1.94 2.02 2.11 2.13 2.14 2.03 2.02 1.96 1.97 1.95 1.88 1.79 1.69 1.57 1.55 1.57 1.66 1.84 1.85 1.90 1.99 1.95 1.88 1.80 1.70 1.62 1.58 1.55 1.51 1.53 1.58 1.57 1.54 1.52 1.57 1.54 1.57 1.60 1.53
1.84 1.88 1.88 1.87 1.90 1.92 2.01 1.98 2.00 1.92 1.82 1.73 1.67 1.68 1.72 1.68 1.62 1.61 1.63 1.68 1.65 1.71 1.64 1.74 1.85 1.83 1.81 1.76 1.63 1.51 1.48 1.50 1.59 1.58 1.59 1.59 1.63 1.62 1.65 1.61 1.58 1.62 1.58
1.58 1.68 1.81 1.90 1.94 1.95 2.01 2.07 2.14 2.16 2.05 1.83 1.69 1.63 1.56 1.54 1.49 1.53 1.62 1.59 1.51 1.51 1.54 1.67 1.73 1.69 1.65 1.61 1.57 1.52 1.51 1.55 1.64 1.61 1.60 1.62 1.65 1.65 1.66 1.65 1.60 1.57 1.58
1.50 1.52 1.55 1.63 1.74 1.83 1.83 1.88 1.95 2.04 2.05 1.94 1.80 1.69 1.63 1.56 1.47 1.44 1.40 1.27 1.30 1.42 1.56 1.61 1.65 1.64 1.54 1.47 1.45 1.41 1.42 1.49 1.57 1.63 1.61 1.67 1.71 1.74 1.72 1.68 1.69 1.72 1.63
1.52 1.55 1.52 1.48 1.48 1.54 1.61 1.68 1.76 1.87 1.94 1.91 1.83 1.72 1.63 1.53 1.31 1.22 1.15 1.12 1.20 1.28 1.35 1.39 1.43 1.41 1.32 1.34 1.39 1.37 1.35 1.43 1.55 1.61 1.59 1.65 1.72 1.73 1.65 1.62 1.61 1.64 1.56
1.52 1.51 1.51 1.50 1.50 1.53 1.59 1.66 1.69 1.75 1.80 1.72 1.61 1.52 1.45 1.27 1.14 1.05 1.05 1.09 1.17 1.24 1.30 1.36 1.36 1.30 1.29 1.34 1.41 1.44 1.41 1.46 1.55 1.59 1.61 1.65 1.72 1.74 1.66 1.61 1.58 1.61 1.62
1.53 1.46 1.41 1.41 1.48 1.53 1.60 1.68 1.72 1.72 1.66 1.58 1.50 1.39 1.34 1.17 1.08 1.06 1.08 1.12 1.18 1.28 1.33 1.34 1.37 1.34 1.30 1.32 1.41 1.48 1.51 1.54 1.58 1.60 1.57 1.60 1.69 1.73 1.76 1.73 1.74 1.75 1.77
1.63 1.52 1.45 1.44 1.46 1.49 1.52 1.57 1.62 1.59 1.53 1.43 1.33 1.26 1.19 1.14 1.07 1.09 1.14 1.22 1.29 1.30 1.27 1.26 1.28 1.28 1.27 1.30 1.31 1.39 1.47 1.52 1.54 1.55 1.61 1.65 1.65 1.65 1.67 1.64 1.66 1.68 1.70
1.67 1.57 1.46 1.38 1.40 1.43 1.47 1.54 1.54 1.48 1.40 1.34 1.30 1.27 1.22 1.23 1.19 1.18 1.24 1.31 1.26 1.17 1.14 1.16 1.18 1.16 1.18 1.24 1.25 1.26 1.31 1.41 1.42 1.41 1.43 1.49 1.51 1.53 1.60 1.60 1.61 1.63 1.70
1.64 1.58 1.47 1.37 1.36 1.38 1.41 1.48 1.51 1.48 1.41 1.31 1.27 1.29 1.34 1.40 1.34 1.29 1.27 1.26 1.18 1.08 1.03 1.10 1.14 1.12 1.14 1.15 1.19 1.21 1.28 1.30 1.28 1.29 1.31 1.37 1.43 1.51 1.58 1.60 1.62 1.63 1.68
1.46 1.37 1.30 1.24 1.22 1.27 1.34 1.42 1.46 1.49 1.49 1.43 1.42 1.42 1.37 1.35 1.31 1.25 1.21 1.19 1.15 1.10 1.05 1.08 1.13 1.13 1.17 1.16 1.09 1.11 1.12 1.05 1.07 1.16 1.14 1.18 1.32 1.45 1.54 1.63 1.65 1.69 1.69

GEFSGL_prec_meanprecacc_330.txt.gz
Total_Precipitation_Accumulation
2.13 2.34 2.36 2.39 2.47 2.52 2.33 2.06 1.96 1.98 2.05 2.12 2.30 2.36 2.31 2.35 2.47 2.55 2.51 2.82 2.96 2.99 2.96 2.95 2.92 3.06 3.04 2.92 3.02 3.20 3.48 3.57 3.20 2.63 2.50 2.45 2.44 2.34 2.35 2.22 2.10 2.05 1.86
2.08 2.29 2.36 2.34 2.37 2.38 2.22 2.02 1.98 2.03 2.09 2.09 2.20 2.24 2.14 2.16 2.37 2.41 2.45 2.73 2.89 2.78 2.78 2.78 2.57 2.64 2.72 2.59 2.73 2.81 2.95 3.21 3.14 2.80 2.71 2.67 2.61 2.49 2.49 2.46 2.23 2.01 1.75
2.01 2.31 2.47 2.49 2.43 2.33 2.12 1.90 1.83 1.83 1.92 1.96 1.99 2.02 2.07 2.22 2.32 2.31 2.33 2.34 2.37 2.44 2.66 2.78 2.57 2.55 2.47 2.47 2.50 2.48 2.56 2.67 2.92 2.84 2.69 2.73 2.65 2.65 2.57 2.35 2.19 2.10 1.74
1.92 2.11 2.23 2.10 2.04 2.02 1.91 1.76 1.70 1.71 1.75 1.82 1.90 2.00 2.07 2.14 2.19 2.26 2.33 2.26 2.22 2.27 2.42 2.49 2.46 2.43 2.36 2.46 2.38 2.37 2.45 2.61 2.75 2.79 2.69 2.79 2.77 2.72 2.74 2.52 2.51 2.37 2.14
1.54 1.64 1.77 1.75 1.73 1.72 1.78 1.82 1.82 1.86 1.82 1.89 1.97 1.97 1.97 1.96 1.89 1.95 2.04 2.06 2.18 2.13 2.04 2.05 2.07 2.12 2.11 2.15 2.00 2.18 2.43 2.58 2.63 2.65 2.64 2.82 2.96 2.97 2.80 2.73 2.77 2.73 2.50
1.30 1.40 1.63 1.75 1.76 1.75 1.82 1.95 1.96 1.92 1.92 1.95 1.90 1.95 1.95 1.68 1.86 1.91 1.92 2.01 2.08 2.09 2.00 1.89 1.79 1.79 1.73 1.73 1.69 1.77 2.07 2.31 2.45 2.59 2.57 2.69 2.91 3.09 3.21 3.17 3.02 2.90 2.81
1.39 1.54 1.71 1.82 1.90 1.91 1.88 2.00 1.96 1.97 2.04 2.00 1.92 1.92 1.95 2.01 2.07 1.91 1.78 1.75 1.84 1.90 1.87 1.84 1.61 1.53 1.71 1.68 1.73 1.70 1.72 1.88 2.04 2.27 2.37 2.33 2.52 2.83 3.10 3.01 3.16 3.21 3.11
1.67 1.85 1.94 2.06 2.01 1.98 1.98 2.02 2.10 2.20 2.24 2.21 2.15 2.06 2.04 2.03 2.04 1.84 1.85 1.76 1.77 1.76 1.78 1.81 1.80 1.72 1.79 1.91 1.88 1.80 1.68 1.64 1.73 1.81 1.93 2.06 2.30 2.64 2.92 2.88 2.96 3.06 3.07
1.81 1.91 2.05 2.15 2.19 2.20 2.21 2.18 2.27 2.40 2.36 2.29 2.23 2.24 2.18 2.20 2.28 2.08 2.11 1.95 1.93 1.93 1.96 1.96 1.94 1.84 1.99 1.95 1.84 1.81 1.76 1.75 1.81 1.89 1.84 1.94 2.18 2.33 2.53 2.65 2.62 2.68 2.61
1.78 1.89 2.07 2.30 2.35 2.37 2.52 2.61 2.57 2.52 2.38 2.40 2.39 2.36 2.36 2.40 2.65 2.46 2.30 2.12 2.11 2.10 2.20 2.18 2.22 2.07 2.07 2.00 1.83 1.84 1.86 1.88 1.99 1.94 1.89 1.84 1.86 2.09 2.35 2.38 2.56 2.75 2.62
1.82 1.96 2.14 2.32 2.41 2.49 2.66 2.74 2.72 2.66 2.63 2.59 2.53 2.57 2.55 2.54 2.71 2.49 2.28 2.14 2.19 2.33 2.32 2.23 2.29 2.33 2.12 2.12 2.07 1.97 1.95 1.96 1.94 1.96 1.96 1.93 1.93 2.03 2.14 2.26 2.52 2.72 2.71
1.77 1.91 2.04 2.19 2.21 2.31 2.59 2.68 2.78 2.80 2.75 2.66 2.61 2.47 2.49 2.47 2.40 2.27 2.18 2.15 2.24 2.36 2.42 2.35 2.31 2.32 2.09 2.02 1.89 1.85 1.89 1.78 1.69 1.80 1.81 1.84 1.86 1.86 1.95 2.16 2.37 2.45 2.48
1.86 1.99 2.13 2.21 2.26 2.36 2.48 2.53 2.63 2.70 2.64 2.52 2.54 2.49 2.43 2.42 2.40 2.17 1.96 1.93 1.99 2.02 2.16 2.32 2.24 2.14 1.93 1.73 1.69 1.66 1.58 1.46 1.46 1.51 1.50 1.50 1.59 1.69 1.79 1.93 2.15 2.27 2.25
1.96 2.02 2.11 2.22 2.22 2.30 2.43 2.53 2.64 2.74 2.81 2.69 2.55 2.44 2.43 2.39 2.26 2.08 1.89 1.81 1.92 2.04 2.13 2.20 2.08 1.97 1.78 1.62 1.53 1.43 1.38 1.45 1.49 1.46 1.48 1.55 1.62 1.68 1.71 1.75 1.89 2.02 2.04
1.90 1.97 2.00 2.04 2.14 2.26 2.32 2.43 2.41 2.49 2.52 2.50 2.42 2.38 2.37 2.29 2.14 2.06 1.87 1.75 1.88 2.06 2.12 2.12 1.98 1.92 1.81 1.71 1.63 1.57 1.56 1.57 1.54 1.52 1.57 1.56 1.57 1.64 1.62 1.62 1.74 1.75 1.70
1.95 1.98 1.93 1.88 1.96 2.04 2.13 2.15 2.17 2.06 2.05 1.99 1.99 1.97 1.90 1.81 1.70 1.58 1.56 1.58 1.67 1.85 1.86 1.91 2.00 1.96 1.89 1.81 1.71 1.63 1.59 1.57 1.53 1.55 1.61 1.61 1.58 1.57 1.62 1.58 1.63 1.67 1.60
1.86 1.91 1.91 1.89 1.93 1.95 2.03 2.00 2.02 1.94 1.84 1.74 1.69 1.70 1.73 1.69 1.63 1.61 1.64 1.69 1.67 1.73 1.65 1.75 1.87 1.84 1.83 1.77 1.65 1.52 1.49 1.52 1.61 1.61 1.62 1.63 1.67 1.67 1.70 1.67 1.64 1.68 1.64
1.60 1.70 1.84 1.93 1.97 1.98 2.04 2.10 2.17 2.19 2.07 1.84 1.70 1.64 1.58 1.55 1.50 1.54 1.63 1.60 1.52 1.52 1.56 1.69 1.74 1.71 1.68 1.64 1.59 1.53 1.53 1.58 1.67 1.64 1.63 1.66 1.69 1.69 1.70 1.70 1.66 1.63 1.64
1.52 1.55 1.57 1.66 1.77 1.85 1.86 1.91 1.99 2.08 2.08 1.96 1.81 1.72 1.65 1.58 1.49 1.45 1.42 1.28 1.31 1.44 1.58 1.62 1.67 1.67 1.57 1.50 1.48 1.43 1.45 1.51 1.60 1.66 1.64 1.70 1.74 1.78 1.76 1.72 1.74 1.77 1.68
1.56 1.59 1.55 1.51 1.51 1.56 1.63 1.71 1.80 1.92 1.99 1.95 1.86 1.75 1.66 1.56 1.33 1.24 1.17 1.14 1.22 1.29 1.37 1.41 1.45 1.43 1.35 1.36 1.41 1.39 1.37 1.45 1.57 1.63 1.62 1.68 1.76 1.76 1.69 1.66 1.66 1.68 1.59
1.55 1.54 1.54 1.53 1.53 1.56 1.61 1.68 1.72 1.77 1.82 1.75 1.64 1.55 1.48 1.31 1.18 1.09 1.08 1.12 1.20 1.27 1.33 1.38 1.38 1.32 1.31 1.36 1.44 1.46 1.43 1.48 1.57 1.60 1.63 1.67 1.75 1.77 1.68 1.64 1.63 1.66 1.68
1.56 1.48 1.43 1.43 1.50 1.56 1.63 1.71 1.74 1.74 1.67 1.59 1.52 1.41 1.37 1.20 1.12 1.10 1.11 1.15 1.22 1.32 1.35 1.37 1.39 1.36 1.32 1.35 1.43 1.51 1.55 1.56 1.60 1.62 1.59 1.61 1.70 1.74 1.77 1.74 1.75 1.77 1.80
1.67 1.55 1.48 1.47 1.50 1.52 1.54 1.60 1.64 1.61 1.55 1.46 1.36 1.30 1.23 1.19 1.12 1.14 1.19 1.26 1.33 1.34 1.31 1.29 1.31 1.31 1.30 1.33 1.34 1.41 1.52 1.58 1.58 1.58 1.63 1.67 1.66 1.66 1.69 1.66 1.67 1.70 1.72
1.71 1.61 1.50 1.42 1.43 1.46 1.49 1.57 1.56 1.51 1.42 1.37 1.33 1.31 1.27 1.28 1.24 1.23 1.29 1.36 1.29 1.20 1.18 1.18 1.20 1.20 1.21 1.28 1.28 1.28 1.34 1.46 1.47 1.44 1.47 1.53 1.54 1.55 1.62 1.62 1.62 1.64 1.71
1.68 1.63 1.52 1.41 1.39 1.40 1.43 1.51 1.53 1.51 1.44 1.35 1.31 1.33 1.39 1.44 1.39 1.33 1.31 1.30 1.22 1.12 1.05 1.13 1.17 1.15 1.16 1.18 1.22 1.24 1.32 1.35 1.34 1.33 1.35 1.41 1.47 1.54 1.60 1.62 1.63 1.64 1.69
1.49 1.41 1.34 1.28 1.26 1.30 1.37 1.45 1.49 1.53 1.53 1.47 1.46 1.47 1.43 1.41 1.37 1.30 1.26 1.25 1.24 1.16 1.10 1.12 1.17 1.16 1.19 1.18 1.12 1.14 1.15 1.07 1.10 1.20 1.17 1.21 1.37 1.49 1.57 1.65 1.66 1.70 1.70

GEFSGL_prec_meanprecacc_336.txt.gz
Total_Precipitation_Accumulation
2.18 2.39 2.39 2.41 2.48 2.55 2.38 2.11 2.01 2.01 2.07 2.14 2.32 2.39 2.34 2.39 2.52 2.59 2.55 2.86 3.00 3.03 3.02 3.01 2.98 3.14 3.13 3.00 3.10 3.29 3.57 3.67 3.26 2.68 2.55 2.49 2.49 2.37 2.38 2.25 2.12 2.08 1.87
2.12 2.33 2.39 2.37 2.41 2.45 2.30 2.10 2.04 2.06 2.11 2.11 2.23 2.28 2.18 2.20 2.42 2.44 2.48 2.76 2.93 2.82 2.83 2.84 2.63 2.71 2.81 2.67 2.81 2.89 3.04 3.30 3.20 2.84 2.76 2.71 2.68 2.57 2.54 2.48 2.25 2.02 1.75
2.07 2.36 2.52 2.56 2.52 2.43 2.23 1.97 1.87 1.85 1.94 1.98 2.02 2.05 2.11 2.26 2.37 2.37 2.39 2.38 2.40 2.47 2.70 2.83 2.61 2.60 2.53 2.55 2.58 2.56 2.63 2.73 2.98 2.89 2.74 2.79 2.71 2.71 2.62 2.39 2.22 2.12 1.75
1.99 2.19 2.32 2.21 2.14 2.11 1.98 1.81 1.73 1.73 1.77 1.84 1.92 2.02 2.10 2.17 2.23 2.32 2.39 2.30 2.26 2.30 2.44 2.52 2.50 2.46 2.40 2.51 2.44 2.45 2.52 2.68 2.82 2.87 2.76 2.86 2.84 2.79 2.82 2.59 2.56 2.40 2.17
1.63 1.73 1.87 1.84 1.79 1.77 1.82 1.85 1.84 1.88 1.83 1.90 1.98 2.00 1.99 1.98 1.91 1.98 2.08 2.09 2.22 2.16 2.07 2.08 2.10 2.14 2.13 2.18 2.04 2.23 2.49 2.65 2.71 2.72 2.72 2.90 3.04 3.07 2.89 2.81 2.84 2.77 2.54
1.34 1.45 1.68 1.79 1.80 1.79 1.85 1.97 1.98 1.94 1.93 1.97 1.92 1.97 1.97 1.70 1.88 1.94 1.94 2.03 2.11 2.12 2.04 1.92 1.81 1.81 1.75 1.76 1.72 1.82 2.13 2.37 2.52 2.67 2.65 2.76 2.98 3.17 3.28 3.23 3.09 2.96 2.87
1.41 1.56 1.75 1.86 1.93 1.94 1.91 2.04 1.99 1.99 2.07 2.03 1.95 1.96 1.98 2.04 2.10 1.93 1.79 1.76 1.86 1.92 1.89 1.86 1.63 1.54 1.72 1.70 1.75 1.73 1.76 1.93 2.09 2.33 2.43 2.38 2.58 2.89 3.18 3.07 3.23 3.28 3.17
1.68 1.87 1.97 2.09 2.04 2.01 2.02 2.06 2.15 2.23 2.27 2.25 2.18 2.10 2.08 2.06 2.06 1.86 1.85 1.77 1.77 1.78 1.79 1.83 1.82 1.73 1.79 1.93 1.90 1.82 1.71 1.67 1.77 1.85 1.96 2.10 2.34 2.69 2.98 2.95 3.03 3.14 3.14
1.82 1.92 2.07 2.18 2.22 2.23 2.24 2.23 2.32 2.45 2.40 2.32 2.25 2.27 2.22 2.22 2.29 2.09 2.12 1.96 1.94 1.94 1.97 1.97 1.95 1.85 2.00 1.96 1.85 1.83 1.79 1.78 1.85 1.94 1.89 1.98 2.21 2.36 2.57 2.69 2.67 2.74 2.66
1.79 1.90 2.08 2.32 2.38 2.40 2.55 2.66 2.62 2.58 2.44 2.44 2.43 2.40 2.39 2.42 2.66 2.48 2.31 2.14 2.13 2.12 2.22 2.20 2.23 2.08 2.08 2.01 1.85 1.86 1.88 1.90 2.01 1.97 1.93 1.88 1.90 2.13 2.39 2.43 2.62 2.82 2.68
1.82 1.97 2.16 2.34 2.44 2.52 2.71 2.80 2.78 2.72 2.70 2.65 2.58 2.60 2.58 2.57 2.75 2.51 2.30 2.16 2.21 2.35 2.35 2.26 2.32 2.34 2.13 2.14 2.08 1.98 1.96 1.98 1.96 1.99 1.99 1.96 1.97 2.08 2.20 2.33 2.61 2.81 2.78
1.78 1.93 2.06 2.21 2.23 2.32 2.62 2.72 2.83 2.88 2.83 2.73 2.66 2.52 2.53 2.51 2.43 2.30 2.19 2.15 2.25 2.38 2.45 2.39 2.35 2.35 2.12 2.04 1.90 1.86 1.91 1.81 1.72 1.83 1.85 1.87 1.89 1.90 1.99 2.21 2.44 2.53 2.57
1.89 2.02 2.16 2.24 2.28 2.38 2.51 2.56 2.66 2.75 2.71 2.57 2.58 2.52 2.45 2.44 2.43 2.19 1.97 1.94 2.00 2.04 2.19 2.35 2.28 2.17 1.98 1.79 1.74 1.70 1.60 1.48 1.49 1.55 1.55 1.56 1.64 1.73 1.84 1.99 2.21 2.33 2.32
1.99 2.06 2.15 2.26 2.24 2.33 2.46 2.57 2.68 2.77 2.85 2.73 2.58 2.46 2.44 2.40 2.29 2.11 1.92 1.84 1.95 2.06 2.16 2.23 2.11 2.00 1.81 1.66 1.58 1.49 1.43 1.49 1.52 1.50 1.53 1.63 1.71 1.75 1.76 1.80 1.95 2.09 2.11
1.93 2.01 2.04 2.08 2.17 2.29 2.36 2.47 2.45 2.52 2.55 2.52 2.43 2.39 2.38 2.30 2.16 2.08 1.89 1.78 1.90 2.08 2.15 2.15 2.01 1.95 1.84 1.73 1.66 1.60 1.58 1.61 1.56 1.54 1.59 1.59 1.60 1.68 1.66 1.67 1.79 1.82 1.77
1.99 2.03 1.98 1.92 2.00 2.07 2.16 2.18 2.20 2.09 2.07 2.02 2.01 1.98 1.91 1.82 1.72 1.60 1.58 1.59 1.69 1.86 1.87 1.93 2.03 2.00 1.93 1.84 1.74 1.66 1.61 1.58 1.54 1.57 1.63 1.63 1.60 1.60 1.65 1.62 1.69 1.74 1.65
1.91 1.96 1.95 1.94 1.97 1.97 2.06 2.02 2.05 1.98 1.88 1.78 1.72 1.73 1.76 1.72 1.65 1.63 1.65 1.69 1.67 1.73 1.66 1.77 1.90 1.89 1.87 1.81 1.68 1.56 1.52 1.54 1.64 1.63 1.64 1.65 1.69 1.69 1.73 1.71 1.70 1.76 1.71
1.65 1.74 1.87 1.96 2.00 2.01 2.07 2.13 2.20 2.23 2.11 1.89 1.75 1.69 1.62 1.59 1.53 1.57 1.64 1.61 1.53 1.54 1.57 1.71 1.79 1.76 1.73 1.68 1.63 1.57 1.57 1.61 1.70 1.66 1.66 1.69 1.72 1.72 1.73 1.74 1.71 1.69 1.71
1.56 1.58 1.60 1.68 1.80 1.89 1.91 1.96 2.03 2.12 2.15 2.04 1.88 1.81 1.75 1.65 1.53 1.48 1.44 1.29 1.34 1.48 1.63 1.68 1.72 1.72 1.61 1.54 1.52 1.47 1.49 1.57 1.65 1.72 1.69 1.75 1.78 1.81 1.79 1.74 1.77 1.80 1.72
1.59 1.62 1.57 1.54 1.54 1.61 1.68 1.76 1.86 1.99 2.07 2.05 1.98 1.88 1.81 1.69 1.41 1.31 1.23 1.18 1.26 1.34 1.44 1.47 1.51 1.49 1.40 1.41 1.46 1.44 1.41 1.50 1.61 1.67 1.66 1.72 1.79 1.79 1.71 1.68 1.68 1.70 1.62
1.59 1.58 1.57 1.55 1.56 1.60 1.66 1.73 1.76 1.82 1.88 1.83 1.74 1.67 1.61 1.42 1.28 1.19 1.17 1.21 1.27 1.32 1.38 1.44 1.44 1.38 1.36 1.42 1.49 1.52 1.48 1.53 1.62 1.64 1.67 1.72 1.79 1.81 1.72 1.68 1.65 1.68 1.69
1.60 1.51 1.46 1.47 1.55 1.61 1.67 1.75 1.79 1.78 1.73 1.64 1.58 1.49 1.46 1.30 1.23 1.24 1.25 1.26 1.30 1.40 1.42 1.43 1.45 1.42 1.39 1.43 1.51 1.58 1.61 1.61 1.64 1.66 1.63 1.66 1.75 1.79 1.83 1.79 1.78 1.79 1.82
1.70 1.59 1.53 1.52 1.55 1.58 1.58 1.64 1.69 1.66 1.60 1.50 1.41 1.36 1.32 1.29 1.26 1.32 1.37 1.42 1.46 1.44 1.39 1.37 1.38 1.37 1.37 1.40 1.39 1.46 1.58 1.63 1.63 1.63 1.69 1.73 1.72 1.70 1.73 1.69 1.69 1.72 1.74
1.74 1.65 1.55 1.48 1.48 1.51 1.55 1.63 1.64 1.58 1.49 1.44 1.42 1.42 1.39 1.40 1.36 1.36 1.42 1.50 1.45 1.33 1.25 1.24 1.26 1.25 1.29 1.36 1.35 1.35 1.40 1.53 1.54 1.50 1.51 1.57 1.61 1.62 1.68 1.67 1.66 1.66 1.73
1.76 1.73 1.60 1.49 1.48 1.48 1.50 1.57 1.59 1.56 1.50 1.42 1.40 1.44 1.49 1.54 1.48 1.42 1.41 1.40 1.33 1.24 1.15 1.20 1.24 1.22 1.23 1.25 1.28 1.30 1.40 1.44 1.40 1.38 1.38 1.45 1.51 1.58 1.66 1.68 1.69 1.68 1.71
1.58 1.51 1.42 1.35 1.33 1.38 1.45 1.52 1.55 1.59 1.61 1.56 1.54 1.55 1.51 1.49 1.44 1.37 1.34 1.34 1.33 1.25 1.18 1.21 1.24 1.22 1.25 1.25 1.19 1.21 1.22 1.14 1.15 1.24 1.20 1.24 1.41 1.53 1.61 1.69 1.70 1.73 1.72

GEFSGL_prec_meanprecacc_342.txt.gz
Total_Precipitation_Accumulation
2.30 2.48 2.47 2.46 2.53 2.60 2.43 2.17 2.08 2.10 2.17 2.21 2.35 2.40 2.35 2.41 2.54 2.61 2.57 2.89 3.03 3.06 3.05 3.05 3.03 3.18 3.15 3.02 3.13 3.33 3.62 3.72 3.31 2.73 2.59 2.53 2.54 2.42 2.43 2.29 2.16 2.11 1.90
2.19 2.40 2.46 2.44 2.49 2.53 2.38 2.19 2.16 2.20 2.20 2.16 2.25 2.29 2.19 2.21 2.44 2.46 2.51 2.81 2.98 2.87 2.89 2.91 2.67 2.74 2.83 2.69 2.83 2.92 3.08 3.34 3.24 2.88 2.80 2.76 2.72 2.62 2.60 2.54 2.29 2.05 1.79
2.11 2.41 2.58 2.62 2.58 2.50 2.32 2.09 2.00 1.95 1.98 1.99 2.03 2.06 2.12 2.28 2.40 2.40 2.43 2.43 2.46 2.54 2.76 2.87 2.66 2.63 2.55 2.56 2.60 2.59 2.66 2.76 3.02 2.93 2.78 2.83 2.75 2.75 2.68 2.46 2.27 2.16 1.79
2.03 2.24 2.37 2.26 2.19 2.19 2.08 1.89 1.79 1.77 1.79 1.85 1.94 2.04 2.12 2.20 2.27 2.37 2.44 2.34 2.31 2.36 2.49 2.56 2.55 2.51 2.43 2.53 2.45 2.47 2.54 2.71 2.87 2.92 2.81 2.89 2.88 2.84 2.87 2.67 2.66 2.47 2.21
1.67 1.77 1.91 1.89 1.85 1.82 1.87 1.89 1.87 1.90 1.85 1.93 2.01 2.03 2.03 2.02 1.95 2.01 2.11 2.11 2.24 2.18 2.09 2.10 2.13 2.18 2.18 2.22 2.07 2.26 2.53 2.69 2.75 2.78 2.78 2.97 3.10 3.14 2.95 2.88 2.92 2.84 2.59
1.38 1.48 1.72 1.83 1.83 1.82 1.88 2.00 2.01 1.97 1.95 1.99 1.95 1.99 1.99 1.72 1.91 1.96 1.96 2.05 2.12 2.13 2.05 1.93 1.83 1.82 1.77 1.80 1.77 1.87 2.18 2.42 2.57 2.72 2.70 2.80 3.01 3.20 3.32 3.28 3.14 3.01 2.91
1.43 1.58 1.78 1.89 1.96 1.98 1.95 2.07 2.02 2.02 2.09 2.05 1.98 1.98 2.01 2.07 2.12 1.95 1.81 1.78 1.87 1.93 1.90 1.87 1.64 1.55 1.73 1.71 1.77 1.75 1.78 1.95 2.13 2.38 2.48 2.41 2.60 2.91 3.20 3.11 3.26 3.32 3.21
1.69 1.89 2.00 2.13 2.08 2.06 2.07 2.10 2.18 2.27 2.31 2.29 2.22 2.14 2.11 2.09 2.08 1.87 1.87 1.78 1.78 1.78 1.80 1.84 1.82 1.74 1.80 1.93 1.90 1.82 1.71 1.68 1.80 1.87 1.98 2.11 2.35 2.70 3.00 2.96 3.05 3.16 3.17
1.84 1.94 2.10 2.20 2.24 2.25 2.26 2.25 2.35 2.49 2.45 2.37 2.30 2.31 2.25 2.24 2.32 2.11 2.13 1.97 1.95 1.95 1.98 1.98 1.96 1.86 2.01 1.97 1.86 1.84 1.79 1.78 1.87 1.97 1.90 1.99 2.22 2.38 2.59 2.71 2.69 2.77 2.68
1.81 1.92 2.09 2.33 2.39 2.42 2.57 2.68 2.65 2.62 2.49 2.50 2.48 2.43 2.42 2.45 2.69 2.50 2.34 2.15 2.14 2.13 2.23 2.22 2.26 2.09 2.09 2.03 1.86 1.87 1.89 1.91 2.03 1.98 1.94 1.89 1.91 2.14 2.40 2.44 2.64 2.85 2.70
1.84 1.99 2.18 2.35 2.45 2.53 2.73 2.82 2.81 2.75 2.75 2.70 2.62 2.64 2.62 2.60 2.78 2.53 2.33 2.17 2.23 2.37 2.37 2.29 2.34 2.36 2.15 2.15 2.10 2.00 1.99 2.01 1.99 2.00 2.00 1.97 1.98 2.09 2.21 2.34 2.62 2.83 2.82
1.81 1.95 2.09 2.23 2.25 2.34 2.63 2.73 2.85 2.90 2.85 2.77 2.72 2.56 2.56 2.54 2.45 2.31 2.21 2.18 2.28 2.41 2.47 2.42 2.38 2.37 2.14 2.06 1.92 1.89 1.94 1.84 1.75 1.85 1.86 1.88 1.89 1.91 2.01 2.23 2.46 2.55 2.61
1.92 2.05 2.19 2.26 2.30 2.40 2.52 2.57 2.68 2.76 2.72 2.60 2.61 2.55 2.48 2.47 2.45 2.21 2.00 1.97 2.03 2.06 2.21 2.38 2.30 2.19 1.99 1.80 1.75 1.72 1.64 1.52 1.53 1.58 1.56 1.58 1.66 1.75 1.86 2.01 2.23 2.36 2.35
2.02 2.08 2.17 2.28 2.26 2.35 2.48 2.58 2.70 2.78 2.86 2.76 2.63 2.50 2.46 2.43 2.31 2.13 1.94 1.85 1.97 2.07 2.17 2.25 2.13 2.01 1.82 1.66 1.59 1.50 1.46 1.53 1.57 1.53 1.55 1.66 1.75 1.79 1.80 1.83 1.97 2.12 2.14
1.96 2.03 2.07 2.11 2.20 2.31 2.38 2.50 2.47 2.54 2.58 2.55 2.49 2.46 2.42 2.33 2.18 2.09 1.91 1.79 1.91 2.09 2.16 2.17 2.02 1.96 1.84 1.74 1.67 1.61 1.60 1.63 1.60 1.58 1.63 1.62 1.64 1.73 1.73 1.73 1.84 1.86 1.82
2.03 2.06 2.02 1.97 2.04 2.11 2.19 2.22 2.25 2.13 2.12 2.05 2.05 2.05 1.98 1.87 1.75 1.63 1.60 1.62 1.71 1.89 1.88 1.94 2.05 2.02 1.95 1.86 1.76 1.67 1.64 1.62 1.58 1.61 1.67 1.67 1.63 1.63 1.69 1.67 1.74 1.78 1.69
1.96 2.01 2.01 1.98 2.01 2.02 2.11 2.09 2.14 2.08 1.96 1.84 1.77 1.77 1.82 1.79 1.71 1.67 1.69 1.73 1.70 1.76 1.68 1.78 1.92 1.92 1.92 1.87 1.73 1.58 1.54 1.58 1.68 1.67 1.69 1.70 1.73 1.73 1.76 1.74 1.73 1.80 1.74
1.69 1.79 1.92 2.00 2.03 2.06 2.14 2.21 2.28 2.32 2.21 1.98 1.83 1.76 1.69 1.66 1.59 1.62 1.70 1.66 1.57 1.57 1.60 1.75 1.83 1.82 1.79 1.73 1.66 1.59 1.58 1.63 1.73 1.71 1.71 1.75 1.77 1.78 1.78 1.78 1.77 1.76 1.75
1.61 1.64 1.66 1.72 1.84 1.93 1.94 2.00 2.09 2.20 2.24 2.12 1.95 1.88 1.82 1.72 1.59 1.56 1.51 1.36 1.39 1.52 1.67 1.72 1.77 1.76 1.64 1.56 1.54 1.49 1.51 1.60 1.70 1.77 1.75 1.80 1.84 1.88 1.87 1.83 1.85 1.86 1.77
1.67 1.71 1.64 1.57 1.57 1.64 1.72 1.80 1.91 2.05 2.13 2.10 2.03 1.93 1.85 1.73 1.46 1.37 1.30 1.27 1.35 1.41 1.48 1.52 1.54 1.51 1.42 1.44 1.48 1.47 1.45 1.54 1.67 1.72 1.71 1.77 1.84 1.86 1.79 1.76 1.77 1.78 1.65
1.64 1.64 1.64 1.60 1.60 1.65 1.71 1.77 1.80 1.86 1.93 1.88 1.79 1.72 1.65 1.46 1.32 1.24 1.23 1.27 1.35 1.41 1.46 1.49 1.48 1.42 1.41 1.45 1.52 1.55 1.52 1.58 1.67 1.70 1.72 1.77 1.84 1.85 1.76 1.73 1.72 1.72 1.71
1.63 1.56 1.51 1.52 1.60 1.66 1.73 1.81 1.85 1.84 1.79 1.71 1.64 1.53 1.50 1.33 1.26 1.28 1.30 1.32 1.37 1.48 1.51 1.50 1.51 1.47 1.43 1.47 1.55 1.62 1.66 1.65 1.68 1.70 1.68 1.71 1.79 1.83 1.85 1.81 1.80 1.80 1.83
1.74 1.64 1.59 1.59 1.63 1.65 1.67 1.72 1.76 1.74 1.70 1.61 1.51 1.45 1.39 1.35 1.31 1.37 1.44 1.51 1.58 1.57 1.51 1.48 1.48 1.45 1.44 1.46 1.46 1.53 1.63 1.68 1.68 1.68 1.73 1.77 1.76 1.73 1.75 1.70 1.70 1.73 1.75
1.79 1.69 1.60 1.54 1.56 1.60 1.66 1.74 1.73 1.67 1.58 1.54 1.54 1.54 1.50 1.50 1.47 1.47 1.53 1.62 1.57 1.46 1.37 1.35 1.37 1.34 1.37 1.44 1.42 1.41 1.45 1.56 1.59 1.55 1.55 1.60 1.63 1.64 1.70 1.68 1.67 1.67 1.74
1.80 1.77 1.66 1.55 1.54 1.58 1.62 1.69 1.69 1.66 1.59 1.50 1.51 1.53 1.59 1.64 1.57 1.50 1.51 1.49 1.40 1.32 1.23 1.28 1.32 1.30 1.31 1.34 1.35 1.36 1.47 1.50 1.46 1.44 1.43 1.48 1.53 1.61 1.69 1.70 1.71 1.69 1.72
1.63 1.59 1.51 1.42 1.38 1.43 1.50 1.60 1.63 1.66 1.66 1.60 1.59 1.60 1.57 1.54 1.50 1.46 1.43 1.40 1.39 1.30 1.22 1.24 1.28 1.26 1.29 1.28 1.24 1.26 1.28 1.20 1.21 1.30 1.26 1.30 1.46 1.58 1.65 1.73 1.75 1.78 1.77